This is the latest recevied weather packets stored in our database for station/object AB4KY. If no packets are shown the sender has not sent any weather packets the latest 10 day(s).
| Time | Temp. | Humidity | Pressure | Rain* | Wind** | Luminosity | Snow |
|---|---|---|---|---|---|---|---|
| 1777773633 | 6.11° C | 80% | 1016.3 hPa | 0 mm | - | 0 W/m² | - |
| 1777773330 | 6.67° C | 79% | 1016.4 hPa | 0 mm | - | 0 W/m² | - |
| 1777773027 | 6.67° C | 78% | 1016.4 hPa | 0 mm | - | 0 W/m² | - |
| 1777772723 | 6.67° C | 77% | 1016.3 hPa | 0 mm | - | 0 W/m² | - |
| 1777772421 | 6.67° C | 77% | 1016.3 hPa | 0 mm | - | 0 W/m² | - |
| 1777772118 | 6.67° C | 75% | 1016.2 hPa | 0 mm | - | 0 W/m² | - |
| 1777771816 | 6.67° C | 78% | 1016 hPa | 0 mm | - | 0 W/m² | - |
| 1777771513 | 7.22° C | 78% | 1016.1 hPa | 0 mm | - | 0 W/m² | - |
| 1777771209 | 7.22° C | 75% | 1015.9 hPa | 0 mm | - | 0 W/m² | - |
| 1777770906 | 7.78° C | 76% | 1015.6 hPa | 0 mm | - | 0 W/m² | - |
| 1777770603 | 7.78° C | 74% | 1015.7 hPa | 0 mm | - | 0 W/m² | - |
| 1777770299 | 7.78° C | 72% | 1015.6 hPa | 0 mm | - | 0 W/m² | - |
| 1777769997 | 8.33° C | 75% | 1015.7 hPa | 0 mm | - | 0 W/m² | - |
| 1777769694 | 8.89° C | 72% | 1015.4 hPa | 0 mm | - | 0 W/m² | - |
| 1777769391 | 8.89° C | 75% | 1015.3 hPa | 0 mm | - | 0 W/m² | - |
| 1777769087 | 8.89° C | 74% | 1015.5 hPa | 0 mm | - | 0 W/m² | - |
| 1777768785 | 9.44° C | 73% | 1015 hPa | 0 mm | - | 0 W/m² | - |
| 1777768482 | 9.44° C | 70% | 1015.3 hPa | 0 mm | - | 0 W/m² | - |
| 1777768179 | 9.44° C | 65% | 1015.4 hPa | 0 mm | - | 0 W/m² | - |
| 1777767876 | 9.44° C | 64% | 1015.1 hPa | 0 mm | - | 1 W/m² | - |
| 1777767572 | 10° C | 67% | 1015.1 hPa | 0 mm | - | 2 W/m² | - |
| 1777767269 | 10° C | 66% | 1015.4 hPa | 0 mm | - | 2 W/m² | - |
| 1777766966 | 10° C | 65% | 1015 hPa | 0 mm | - | 5 W/m² | - |
| 1777766663 | 10° C | 64% | 1015.1 hPa | 0 mm | - | 9 W/m² | - |
| 1777766360 | 10° C | 65% | 1014.7 hPa | 0 mm | - | 11 W/m² | - |
* Rain latest hour (hover to see other rain measurements)
** Current wind speed in m/s (hover to see current wind gust speed)